Time,TemperatureF,DewpointF,PressureIn,WindDirection,WindDirectionDegrees,WindSpeedMPH,WindSpeedGustMPH,Humidity,HourlyPrecipIn,Conditions,Clouds,dailyrainin,SoftwareType,DateUTC
2013-03-03 00:00:00,27.1,9.7,29.09,NW,315,3.1,8.5,43,-99.99,,,-99.99,WSDL version 342,2013-03-03 05:00:00,
2013-03-03 00:01:00,27.1,9.7,29.09,NW,315,3.1,8.5,43,-99.99,,,-99.99,WSDL version 342,2013-03-03 05:01:00,
2013-03-03 00:04:00,27.1,9.7,29.09,WNW,293,3.8,5.6,43,-99.99,,,-99.99,WSDL version 342,2013-03-03 05:04:00,
2013-03-03 00:06:00,27.1,10.0,29.09,WNW,284,3.5,4.7,44,-99.99,,,-99.99,WSDL version 342,2013-03-03 05:06:00,
2013-03-03 00:11:00,27.2,10.1,29.06,West,273,4.5,6.3,43,-99.99,,,-99.99,WSDL version 342,2013-03-03 05:11:00,
2013-03-03 00:16:00,27.3,10.3,29.06,West,270,4.7,6.3,44,-99.99,,,-99.99,WSDL version 342,2013-03-03 05:16:00,
2013-03-03 00:21:00,27.5,10.0,29.06,WNW,295,6.3,9.8,43,-99.99,,,-99.99,WSDL version 342,2013-03-03 05:21:00,
2013-03-03 00:26:00,27.6,10.2,29.09,West,270,5.1,9.8,43,-99.99,,,-99.99,WSDL version 342,2013-03-03 05:26:00,
2013-03-03 00:31:00,27.7,10.2,29.09,West,267,5.8,9.2,43,-99.99,,,-99.99,WSDL version 342,2013-03-03 05:31:00,
2013-03-03 00:36:00,27.7,9.7,29.09,West,264,5.6,9.2,42,-99.99,,,-99.99,WSDL version 342,2013-03-03 05:36:00,
2013-03-03 00:41:00,27.7,9.7,29.09,WNW,296,4.4,7.8,42,-99.99,,,-99.99,WSDL version 342,2013-03-03 05:41:00,
2013-03-03 00:46:00,27.8,9.9,29.09,West,276,3.9,7.2,42,-99.99,,,-99.99,WSDL version 342,2013-03-03 05:46:00,
2013-03-03 00:51:00,27.9,9.9,29.06,West,274,5.1,7.2,42,-99.99,,,-99.99,WSDL version 342,2013-03-03 05:51:00,
2013-03-03 00:56:00,27.9,9.9,29.06,WNW,295,5.0,10.3,42,-99.99,,,-99.99,WSDL version 342,2013-03-03 05:56:00,
2013-03-03 01:01:00,27.9,9.9,29.06,West,274,4.7,10.3,42,-99.99,,,-99.99,WSDL version 342,2013-03-03 06:01:00,
2013-03-03 01:06:00,27.9,9.9,29.06,WNW,288,3.9,8.5,42,-99.99,,,-99.99,WSDL version 342,2013-03-03 06:06:00,
2013-03-03 01:11:00,27.9,9.9,29.09,West,261,5.9,8.7,42,-99.99,,,-99.99,WSDL version 342,2013-03-03 06:11:00,
2013-03-03 01:16:00,27.9,9.9,29.09,WNW,285,4.0,8.7,42,-99.99,,,-99.99,WSDL version 342,2013-03-03 06:16:00,
2013-03-03 01:21:00,27.9,9.9,29.09,WNW,286,5.1,7.6,42,-99.99,,,-99.99,WSDL version 342,2013-03-03 06:21:00,
2013-03-03 01:26:00,27.9,9.9,29.09,WSW,257,4.3,7.6,42,-99.99,,,-99.99,WSDL version 342,2013-03-03 06:26:00,
2013-03-03 01:31:00,27.9,9.9,29.09,West,276,4.3,6.5,42,-99.99,,,-99.99,WSDL version 342,2013-03-03 06:31:00,
2013-03-03 01:37:00,27.7,9.7,29.09,West,280,3.6,6.7,42,-99.99,,,-99.99,WSDL version 342,2013-03-03 06:37:00,
2013-03-03 01:42:00,27.7,9.7,29.09,West,259,5.4,6.5,42,-99.99,,,-99.99,WSDL version 342,2013-03-03 06:42:00,
2013-03-03 01:47:00,27.7,9.7,29.09,WNW,289,4.6,8.1,42,-99.99,,,-99.99,WSDL version 342,2013-03-03 06:47:00,
2013-03-03 01:52:00,27.5,9.6,29.09,WNW,283,5.4,8.5,42,-99.99,,,-99.99,WSDL version 342,2013-03-03 06:52:00,
2013-03-03 01:57:00,27.5,9.6,29.09,WNW,289,5.7,8.5,42,-99.99,,,-99.99,WSDL version 342,2013-03-03 06:57:00,
2013-03-03 02:02:00,27.5,9.6,29.09,West,276,4.8,7.6,42,-99.99,,,-99.99,WSDL version 342,2013-03-03 07:02:00,
2013-03-03 02:07:00,27.5,9.6,29.09,WNW,295,4.4,7.4,42,-99.99,,,-99.99,WSDL version 342,2013-03-03 07:07:00,
2013-03-03 02:12:00,27.3,9.4,29.09,WNW,296,6.7,11.0,42,-99.99,,,-99.99,WSDL version 342,2013-03-03 07:12:00,
2013-03-03 02:17:00,27.3,8.9,29.09,WNW,298,4.2,11.0,41,-99.99,,,-99.99,WSDL version 342,2013-03-03 07:17:00,
2013-03-03 02:22:00,27.3,9.0,29.09,WNW,296,5.5,9.4,41,-99.99,,,-99.99,WSDL version 342,2013-03-03 07:22:00,
2013-03-03 02:27:00,27.3,8.9,29.09,West,266,5.5,9.4,41,-99.99,,,-99.99,WSDL version 342,2013-03-03 07:27:00,
2013-03-03 02:32:00,27.1,8.8,29.09,West,279,4.6,8.7,41,-99.99,,,-99.99,WSDL version 342,2013-03-03 07:32:00,
2013-03-03 02:37:00,27.1,8.9,29.09,West,272,4.1,6.5,41,-99.99,,,-99.99,WSDL version 342,2013-03-03 07:37:00,
2013-03-03 02:42:00,27.1,8.8,29.09,WNW,285,5.1,12.8,41,-99.99,,,-99.99,WSDL version 342,2013-03-03 07:42:00,
2013-03-03 02:47:00,27.1,8.7,29.09,WNW,284,4.8,12.8,41,-99.99,,,-99.99,WSDL version 342,2013-03-03 07:47:00,
2013-03-03 02:52:00,27.0,8.6,29.09,WNW,283,5.2,11.0,41,-99.99,,,-99.99,WSDL version 342,2013-03-03 07:52:00,
2013-03-03 02:57:00,27.0,8.6,29.09,WNW,289,5.7,11.0,41,-99.99,,,-99.99,WSDL version 342,2013-03-03 07:57:00,
2013-03-03 03:02:00,26.9,8.1,29.09,West,280,6.1,9.8,40,-99.99,,,-99.99,WSDL version 342,2013-03-03 08:02:00,
2013-03-03 03:08:00,26.8,8.1,29.09,West,278,3.7,8.5,41,-99.99,,,-99.99,WSDL version 342,2013-03-03 08:08:00,
2013-03-03 03:13:00,26.6,8.3,29.09,West,276,3.4,7.6,41,-99.99,,,-99.99,WSDL version 342,2013-03-03 08:13:00,
2013-03-03 03:18:00,26.5,8.4,29.09,West,279,4.7,6.5,42,-99.99,,,-99.99,WSDL version 342,2013-03-03 08:18:00,
2013-03-03 03:23:00,26.4,8.4,29.09,West,262,4.7,6.5,42,-99.99,,,-99.99,WSDL version 342,2013-03-03 08:23:00,
2013-03-03 03:28:00,26.2,8.3,29.09,West,266,4.0,6.0,42,-99.99,,,-99.99,WSDL version 342,2013-03-03 08:28:00,
2013-03-03 03:33:00,26.1,8.2,29.09,West,276,4.1,6.0,42,-99.99,,,-99.99,WSDL version 342,2013-03-03 08:33:00,
2013-03-03 03:38:00,25.8,8.0,29.12,WNW,293,2.9,4.9,42,-99.99,,,-99.99,WSDL version 342,2013-03-03 08:38:00,
2013-03-03 03:43:00,25.7,8.1,29.12,West,261,4.0,5.8,43,-99.99,,,-99.99,WSDL version 342,2013-03-03 08:43:00,
2013-03-03 03:48:00,25.7,8.1,29.12,West,273,4.1,5.8,43,-99.99,,,-99.99,WSDL version 342,2013-03-03 08:48:00,
2013-03-03 03:53:00,25.7,8.2,29.12,WNW,289,4.5,7.4,43,-99.99,,,-99.99,WSDL version 342,2013-03-03 08:53:00,
2013-03-03 03:58:00,25.5,8.2,29.12,West,280,3.6,7.4,43,-99.99,,,-99.99,WSDL version 342,2013-03-03 08:58:00,
2013-03-03 04:03:00,25.4,8.1,29.12,WNW,285,5.1,6.5,43,-99.99,,,-99.99,WSDL version 342,2013-03-03 09:03:00,
2013-03-03 04:08:00,25.3,8.0,29.12,West,281,4.5,6.5,43,-99.99,,,-99.99,WSDL version 342,2013-03-03 09:08:00,
2013-03-03 04:13:00,25.3,8.0,29.12,WNW,284,4.8,7.8,43,-99.99,,,-99.99,WSDL version 342,2013-03-03 09:13:00,
2013-03-03 04:18:00,25.3,8.0,29.12,West,278,4.8,8.5,43,-99.99,,,-99.99,WSDL version 342,2013-03-03 09:18:00,
2013-03-03 04:23:00,25.3,8.0,29.12,West,273,4.9,8.5,43,-99.99,,,-99.99,WSDL version 342,2013-03-03 09:23:00,
2013-03-03 04:28:00,25.2,7.9,29.12,West,276,5.1,7.8,43,-99.99,,,-99.99,WSDL version 342,2013-03-03 09:28:00,
2013-03-03 04:33:00,25.2,7.9,29.12,West,267,3.9,7.8,43,-99.99,,,-99.99,WSDL version 342,2013-03-03 09:33:00,
2013-03-03 04:39:00,25.2,8.3,29.12,West,267,4.6,7.8,44,-99.99,,,-99.99,WSDL version 342,2013-03-03 09:39:00,
2013-03-03 04:44:00,25.2,8.3,29.12,West,278,3.4,7.8,44,-99.99,,,-99.99,WSDL version 342,2013-03-03 09:44:00,
2013-03-03 04:49:00,25.2,8.3,29.12,West,267,4.5,9.6,44,-99.99,,,-99.99,WSDL version 342,2013-03-03 09:49:00,
2013-03-03 04:54:00,25.2,8.1,29.12,West,281,4.3,9.6,43,-99.99,,,-99.99,WSDL version 342,2013-03-03 09:54:00,
2013-03-03 04:59:00,25.2,7.9,29.12,West,264,3.4,7.8,43,-99.99,,,-99.99,WSDL version 342,2013-03-03 09:59:00,
2013-03-03 05:04:00,25.2,7.9,29.12,West,273,3.6,5.6,43,-99.99,,,-99.99,WSDL version 342,2013-03-03 10:04:00,
2013-03-03 05:09:00,25.2,8.2,29.12,WNW,293,4.0,5.6,44,-99.99,,,-99.99,WSDL version 342,2013-03-03 10:09:00,
2013-03-03 05:14:00,25.2,8.3,29.12,WNW,283,3.7,5.6,44,-99.99,,,-99.99,WSDL version 342,2013-03-03 10:14:00,
2013-03-03 05:19:00,25.2,7.9,29.12,West,280,4.8,6.3,43,-99.99,,,-99.99,WSDL version 342,2013-03-03 10:19:00,
2013-03-03 05:24:00,25.2,7.9,29.12,WNW,284,3.8,6.3,43,-99.99,,,-99.99,WSDL version 342,2013-03-03 10:24:00,
2013-03-03 05:29:00,25.2,7.9,29.12,NW,305,4.5,5.8,43,-99.99,,,-99.99,WSDL version 342,2013-03-03 10:29:00,
2013-03-03 05:34:00,25.2,7.9,29.12,West,270,4.0,7.6,43,-99.99,,,-99.99,WSDL version 342,2013-03-03 10:34:00,
2013-03-03 05:39:00,25.2,7.9,29.15,WNW,293,3.8,7.6,43,-99.99,,,-99.99,WSDL version 342,2013-03-03 10:39:00,
2013-03-03 05:44:00,25.1,7.8,29.15,NW,304,4.6,7.4,43,-99.99,,,-99.99,WSDL version 342,2013-03-03 10:44:00,
2013-03-03 05:50:00,25.0,7.7,29.15,West,281,3.6,6.5,43,-99.99,,,-99.99,WSDL version 342,2013-03-03 10:50:00,
2013-03-03 05:55:00,25.0,7.2,29.15,WNW,286,4.5,6.5,42,-99.99,,,-99.99,WSDL version 342,2013-03-03 10:55:00,
2013-03-03 06:01:00,24.8,7.5,29.15,West,266,3.8,7.6,43,-99.99,,,-99.99,WSDL version 342,2013-03-03 11:01:00,
2013-03-03 06:06:00,24.8,7.5,29.15,West,267,3.0,7.6,43,-99.99,,,-99.99,WSDL version 342,2013-03-03 11:06:00,
2013-03-03 06:11:00,24.6,7.3,29.15,West,274,3.2,6.3,43,-99.99,,,-99.99,WSDL version 342,2013-03-03 11:11:00,
2013-03-03 06:16:00,24.4,7.4,29.15,WNW,283,3.4,6.0,44,-99.99,,,-99.99,WSDL version 342,2013-03-03 11:16:00,
2013-03-03 06:21:00,24.4,7.6,29.15,West,264,4.1,6.0,44,-99.99,,,-99.99,WSDL version 342,2013-03-03 11:21:00,
2013-03-03 06:27:00,24.3,7.5,29.15,WNW,284,3.0,5.8,44,-99.99,,,-99.99,WSDL version 342,2013-03-03 11:27:00,
2013-03-03 06:32:00,24.3,7.7,29.15,West,270,3.3,5.8,45,-99.99,,,-99.99,WSDL version 342,2013-03-03 11:32:00,
2013-03-03 06:37:00,24.3,7.9,29.15,West,278,3.1,7.8,45,-99.99,,,-99.99,WSDL version 342,2013-03-03 11:37:00,
2013-03-03 06:42:00,24.3,7.9,29.15,West,278,3.5,7.8,45,-99.99,,,-99.99,WSDL version 342,2013-03-03 11:42:00,
2013-03-03 06:47:00,24.3,8.4,29.15,West,262,3.3,6.5,46,-99.99,,,-99.99,WSDL version 342,2013-03-03 11:47:00,
2013-03-03 06:52:00,24.3,8.4,29.15,West,266,3.9,8.5,46,-99.99,,,-99.99,WSDL version 342,2013-03-03 11:52:00,
2013-03-03 06:57:00,24.4,8.5,29.15,West,278,3.5,8.5,46,-99.99,,,-99.99,WSDL version 342,2013-03-03 11:57:00,
2013-03-03 07:02:00,24.5,8.6,29.15,West,267,3.4,6.0,46,-99.99,,,-99.99,WSDL version 342,2013-03-03 12:02:00,
2013-03-03 07:07:00,24.6,8.7,29.15,WNW,289,4.3,6.5,46,-99.99,,,-99.99,WSDL version 342,2013-03-03 12:07:00,
2013-03-03 07:12:00,24.8,8.9,29.15,West,273,3.2,6.5,46,-99.99,,,-99.99,WSDL version 342,2013-03-03 12:12:00,
2013-03-03 07:17:00,24.9,8.7,29.15,West,281,4.1,6.5,45,-99.99,,,-99.99,WSDL version 342,2013-03-03 12:17:00,
2013-03-03 07:22:00,25.1,8.7,29.15,WNW,293,4.7,7.4,45,-99.99,,,-99.99,WSDL version 342,2013-03-03 12:22:00,
2013-03-03 07:27:00,25.3,8.9,29.15,WNW,293,4.9,7.4,45,-99.99,,,-99.99,WSDL version 342,2013-03-03 12:27:00,
2013-03-03 07:32:00,25.4,9.0,29.15,West,278,6.1,8.9,45,-99.99,,,-99.99,WSDL version 342,2013-03-03 12:32:00,
2013-03-03 07:37:00,25.7,8.9,29.15,West,275,5.3,8.9,45,-99.99,,,-99.99,WSDL version 342,2013-03-03 12:37:00,
2013-03-03 07:42:00,26.1,9.2,29.15,WNW,286,4.9,8.7,44,-99.99,,,-99.99,WSDL version 342,2013-03-03 12:42:00,
2013-03-03 07:47:00,26.2,9.0,29.15,West,270,6.0,10.3,43,-99.99,,,-99.99,WSDL version 342,2013-03-03 12:47:00,
2013-03-03 07:52:00,26.5,9.4,29.12,WNW,285,4.8,10.3,44,-99.99,,,-99.99,WSDL version 342,2013-03-03 12:52:00,
2013-03-03 07:57:00,26.7,9.3,29.12,WNW,287,4.5,7.6,43,-99.99,,,-99.99,WSDL version 342,2013-03-03 12:57:00,
2013-03-03 08:02:00,26.6,9.2,29.12,West,278,4.8,12.3,43,-99.99,,,-99.99,WSDL version 342,2013-03-03 13:02:00,
2013-03-03 08:07:00,26.6,9.0,29.15,WNW,296,5.2,12.3,42,-99.99,,,-99.99,WSDL version 342,2013-03-03 13:07:00,
2013-03-03 08:12:00,26.8,8.9,29.15,WNW,297,6.2,12.1,42,-99.99,,,-99.99,WSDL version 342,2013-03-03 13:12:00,
2013-03-03 08:17:00,26.8,8.9,29.15,West,276,4.5,12.1,42,-99.99,,,-99.99,WSDL version 342,2013-03-03 13:17:00,
2013-03-03 08:22:00,27.1,9.2,29.15,WSW,251,4.2,7.8,42,-99.99,,,-99.99,WSDL version 342,2013-03-03 13:22:00,
2013-03-03 08:27:00,27.3,9.3,29.15,West,280,5.5,10.3,41,-99.99,,,-99.99,WSDL version 342,2013-03-03 13:27:00,
2013-03-03 08:32:00,27.4,9.5,29.15,WNW,298,4.7,10.3,42,-99.99,,,-99.99,WSDL version 342,2013-03-03 13:32:00,
2013-03-03 08:37:00,27.5,9.1,29.12,WNW,302,3.2,8.1,41,-99.99,,,-99.99,WSDL version 342,2013-03-03 13:37:00,
2013-03-03 08:42:00,27.8,9.5,29.12,West,281,3.0,8.1,41,-99.99,,,-99.99,WSDL version 342,2013-03-03 13:42:00,
2013-03-03 08:47:00,27.9,9.5,29.12,West,274,2.9,5.6,41,-99.99,,,-99.99,WSDL version 342,2013-03-03 13:47:00,
2013-03-03 08:52:00,28.0,9.6,29.15,West,267,3.6,7.8,41,-99.99,,,-99.99,WSDL version 342,2013-03-03 13:52:00,
2013-03-03 08:57:00,28.0,9.5,29.15,West,266,3.7,7.8,41,-99.99,,,-99.99,WSDL version 342,2013-03-03 13:57:00,
2013-03-03 09:02:00,28.0,9.6,29.15,West,270,5.5,10.3,41,-99.99,,,-99.99,WSDL version 342,2013-03-03 14:02:00,
2013-03-03 09:07:00,28.1,9.6,29.15,West,281,4.4,10.3,41,-99.99,,,-99.99,WSDL version 342,2013-03-03 14:07:00,
2013-03-03 09:12:00,28.1,9.1,29.15,West,280,6.8,10.1,39,-99.99,,,-99.99,WSDL version 342,2013-03-03 14:12:00,
2013-03-03 09:17:00,28.1,8.7,29.15,WNW,295,7.7,10.3,39,-99.99,,,-99.99,WSDL version 342,2013-03-03 14:17:00,
2013-03-03 09:22:00,28.4,8.4,29.15,WNW,293,6.3,10.3,37,-99.99,,,-99.99,WSDL version 342,2013-03-03 14:22:00,
2013-03-03 09:28:00,29.1,8.5,29.15,West,281,4.3,8.5,37,-99.99,,,-99.99,WSDL version 342,2013-03-03 14:28:00,
2013-03-03 09:33:00,29.4,8.6,29.15,WNW,293,4.9,6.0,36,-99.99,,,-99.99,WSDL version 342,2013-03-03 14:33:00,
2013-03-03 09:38:00,29.3,7.3,29.15,WNW,293,4.9,5.4,34,-99.99,,,-99.99,WSDL version 342,2013-03-03 14:38:00,
2013-03-03 09:43:00,29.9,8.0,29.15,WNW,293,4.0,4.9,34,-99.99,,,-99.99,WSDL version 342,2013-03-03 14:43:00,
2013-03-03 09:48:00,30.0,7.3,29.15,West,270,6.5,7.4,33,-99.99,,,-99.99,WSDL version 342,2013-03-03 14:48:00,
2013-03-03 09:53:00,30.2,7.1,29.15,West,270,5.9,7.6,32,-99.99,,,-99.99,WSDL version 342,2013-03-03 14:53:00,
2013-03-03 09:58:00,30.7,7.3,29.15,West,264,8.7,10.1,32,-99.99,,,-99.99,WSDL version 342,2013-03-03 14:58:00,
2013-03-03 10:03:00,30.9,6.9,29.15,NW,304,7.9,10.1,31,-99.99,,,-99.99,WSDL version 342,2013-03-03 15:03:00,
2013-03-03 10:08:00,31.0,6.8,29.15,West,270,7.8,10.1,31,-99.99,,,-99.99,WSDL version 342,2013-03-03 15:08:00,
2013-03-03 10:13:00,31.5,6.6,29.15,WNW,293,2.6,8.7,31,-99.99,,,-99.99,WSDL version 342,2013-03-03 15:13:00,
2013-03-03 10:18:00,32.3,5.0,29.15,WNW,293,4.0,7.2,31,-99.99,,,-99.99,WSDL version 342,2013-03-03 15:18:00,
2013-03-03 10:23:00,32.1,5.8,29.15,WSW,255,7.8,7.8,31,-99.99,,,-99.99,WSDL version 342,2013-03-03 15:23:00,
2013-03-03 10:28:00,32.1,6.3,29.15,West,281,6.6,9.8,31,-99.99,,,-99.99,WSDL version 342,2013-03-03 15:28:00,
2013-03-03 10:33:00,32.8,5.4,29.15,WNW,293,4.7,9.8,31,-99.99,,,-99.99,WSDL version 342,2013-03-03 15:33:00,
2013-03-03 10:38:00,33.2,5.3,29.15,WNW,293,6.9,7.6,31,-99.99,,,-99.99,WSDL version 342,2013-03-03 15:38:00,
2013-03-03 10:43:00,33.5,5.5,29.15,WNW,293,5.1,6.5,30,-99.99,,,-99.99,WSDL version 342,2013-03-03 15:43:00,
2013-03-03 10:48:00,33.5,5.4,29.15,WNW,293,4.9,7.2,30,-99.99,,,-99.99,WSDL version 342,2013-03-03 15:48:00,
2013-03-03 10:53:00,33.8,5.6,29.15,WSW,248,4.6,7.2,30,-99.99,,,-99.99,WSDL version 342,2013-03-03 15:53:00,
2013-03-03 10:58:00,33.7,5.5,29.15,West,259,5.8,9.4,30,-99.99,,,-99.99,WSDL version 342,2013-03-03 15:58:00,
2013-03-03 11:03:00,33.3,5.2,29.15,West,270,5.4,10.1,30,-99.99,,,-99.99,WSDL version 342,2013-03-03 16:03:00,
2013-03-03 11:08:00,33.6,5.4,29.15,WNW,293,7.1,11.9,30,-99.99,,,-99.99,WSDL version 342,2013-03-03 16:08:00,
2013-03-03 11:13:00,33.5,5.4,29.15,WNW,293,5.6,11.9,30,-99.99,,,-99.99,WSDL version 342,2013-03-03 16:13:00,
2013-03-03 11:18:00,33.7,5.6,29.15,WNW,293,5.6,7.8,30,-99.99,,,-99.99,WSDL version 342,2013-03-03 16:18:00,
2013-03-03 11:23:00,33.5,5.4,29.15,WNW,293,5.6,5.8,30,-99.99,,,-99.99,WSDL version 342,2013-03-03 16:23:00,
2013-03-03 11:28:00,33.8,5.6,29.15,WNW,293,5.8,5.8,30,-99.99,,,-99.99,WSDL version 342,2013-03-03 16:28:00,
2013-03-03 11:33:00,33.7,5.6,29.15,WNW,293,4.5,5.8,30,-99.99,,,-99.99,WSDL version 342,2013-03-03 16:33:00,
2013-03-03 11:38:00,33.4,5.3,29.12,West,281,5.0,6.5,30,-99.99,,,-99.99,WSDL version 342,2013-03-03 16:38:00,
2013-03-03 11:43:00,33.3,5.2,29.12,West,270,5.6,6.5,30,-99.99,,,-99.99,WSDL version 342,2013-03-03 16:43:00,
2013-03-03 11:48:00,33.3,5.2,29.12,West,270,5.6,6.5,30,-99.99,,,-99.99,WSDL version 342,2013-03-03 16:48:00,
2013-03-03 11:53:00,33.4,5.2,29.12,West,278,6.6,10.7,30,-99.99,,,-99.99,WSDL version 342,2013-03-03 16:53:00,
2013-03-03 11:58:00,33.6,5.4,29.12,West,270,6.7,10.7,30,-99.99,,,-99.99,WSDL version 342,2013-03-03 16:58:00,
2013-03-03 12:03:00,33.5,5.4,29.12,West,281,6.6,8.7,30,-99.99,,,-99.99,WSDL version 342,2013-03-03 17:03:00,
2013-03-03 12:08:00,34.0,5.8,29.12,WNW,293,6.3,8.7,30,-99.99,,,-99.99,WSDL version 342,2013-03-03 17:08:00,
2013-03-03 12:13:00,34.1,5.9,29.12,WNW,293,7.7,8.7,30,-99.99,,,-99.99,WSDL version 342,2013-03-03 17:13:00,
2013-03-03 12:18:00,34.5,5.6,29.12,WNW,293,8.7,12.1,29,-99.99,,,-99.99,WSDL version 342,2013-03-03 17:18:00,
2013-03-03 12:23:00,34.9,5.8,29.12,WNW,293,8.5,14.8,27,-99.99,,,-99.99,WSDL version 342,2013-03-03 17:23:00,
2013-03-03 12:28:00,35.2,4.5,29.12,West,270,8.6,14.8,27,-99.99,,,-99.99,WSDL version 342,2013-03-03 17:28:00,
2013-03-03 12:33:00,35.7,5.0,29.12,WNW,285,6.0,13.2,27,-99.99,,,-99.99,WSDL version 342,2013-03-03 17:33:00,
2013-03-03 12:38:00,35.7,4.9,29.12,NW,315,5.4,9.6,27,-99.99,,,-99.99,WSDL version 342,2013-03-03 17:38:00,
2013-03-03 12:43:00,35.5,4.8,29.12,West,281,7.7,8.5,27,-99.99,,,-99.99,WSDL version 342,2013-03-03 17:43:00,
2013-03-03 12:48:00,35.6,4.9,29.12,NW,304,6.8,12.3,27,-99.99,,,-99.99,WSDL version 342,2013-03-03 17:48:00,
2013-03-03 12:53:00,37.2,6.0,29.09,West,281,6.2,12.3,26,-99.99,,,-99.99,WSDL version 342,2013-03-03 17:53:00,
2013-03-03 12:58:00,37.2,6.1,29.09,West,281,6.6,13.0,27,-99.99,,,-99.99,WSDL version 342,2013-03-03 17:58:00,
2013-03-03 13:03:00,37.5,5.9,29.09,WNW,293,5.4,13.0,26,-99.99,,,-99.99,WSDL version 342,2013-03-03 18:03:00,
2013-03-03 13:08:00,37.6,5.8,29.09,West,270,5.8,13.0,26,-99.99,,,-99.99,WSDL version 342,2013-03-03 18:08:00,
2013-03-03 13:13:00,37.0,4.4,29.09,West,270,5.8,5.8,24,-99.99,,,-99.99,WSDL version 342,2013-03-03 18:13:00,
2013-03-03 13:18:00,36.3,3.6,29.09,WNW,293,7.8,7.8,27,-99.99,,,-99.99,WSDL version 342,2013-03-03 18:18:00,
2013-03-03 13:23:00,36.2,5.4,29.09,West,266,6.9,13.0,27,-99.99,,,-99.99,WSDL version 342,2013-03-03 18:23:00,
2013-03-03 13:28:00,36.7,5.0,29.09,West,264,8.8,13.0,24,-99.99,,,-99.99,WSDL version 342,2013-03-03 18:28:00,
2013-03-03 13:33:00,37.1,5.3,29.09,WNW,293,6.2,11.0,26,-99.99,,,-99.99,WSDL version 342,2013-03-03 18:33:00,
2013-03-03 13:38:00,37.2,3.7,29.09,West,270,5.8,7.4,24,-99.99,,,-99.99,WSDL version 342,2013-03-03 18:38:00,
2013-03-03 13:43:00,36.9,3.5,29.09,West,270,7.0,7.0,24,-99.99,,,-99.99,WSDL version 342,2013-03-03 18:43:00,
2013-03-03 13:48:00,36.2,4.2,29.09,West,270,7.6,7.6,27,-99.99,,,-99.99,WSDL version 342,2013-03-03 18:48:00,
2013-03-03 13:53:00,36.3,3.8,29.09,West,270,7.6,7.6,27,-99.99,,,-99.99,WSDL version 342,2013-03-03 18:53:00,
2013-03-03 13:58:00,35.8,5.1,29.09,West,270,7.6,7.6,27,-99.99,,,-99.99,WSDL version 342,2013-03-03 18:58:00,
2013-03-03 14:03:00,35.2,3.7,29.09,North,-999,-999.0,-999.0,27,-99.99,,,-99.99,WSDL version 342,2013-03-03 19:03:00,
2013-03-03 14:08:00,35.2,4.5,29.06,North,-999,-999.0,-999.0,27,-99.99,,,-99.99,WSDL version 342,2013-03-03 19:08:00,
2013-03-03 14:13:00,35.2,4.6,29.06,NW,315,6.3,6.3,27,-99.99,,,-99.99,WSDL version 342,2013-03-03 19:13:00,
2013-03-03 14:18:00,35.2,4.6,29.06,NW,315,6.3,6.3,27,-99.99,,,-99.99,WSDL version 342,2013-03-03 19:18:00,
2013-03-03 14:23:00,35.6,4.9,29.09,NW,315,6.3,6.3,27,-99.99,,,-99.99,WSDL version 342,2013-03-03 19:23:00,
2013-03-03 14:30:00,35.4,4.7,29.09,North,-999,-999.0,-999.0,27,-99.99,,,-99.99,WSDL version 342,2013-03-03 19:30:00,
2013-03-03 14:35:00,35.0,4.4,29.09,NW,315,5.6,6.5,27,-99.99,,,-99.99,WSDL version 342,2013-03-03 19:35:00,
2013-03-03 14:40:00,34.9,4.3,29.09,NW,315,5.6,6.5,27,-99.99,,,-99.99,WSDL version 342,2013-03-03 19:40:00,
2013-03-03 14:45:00,34.7,4.2,29.09,NW,315,5.6,6.5,27,-99.99,,,-99.99,WSDL version 342,2013-03-03 19:45:00,
2013-03-03 14:51:00,35.1,4.4,29.09,West,270,4.7,6.5,27,-99.99,,,-99.99,WSDL version 342,2013-03-03 19:51:00,
2013-03-03 14:56:00,35.2,4.6,29.09,WNW,300,6.6,6.6,27,-99.99,,,-99.99,WSDL version 342,2013-03-03 19:56:00,
2013-03-03 15:01:00,34.8,4.2,29.09,West,278,7.8,14.3,27,-99.99,,,-99.99,WSDL version 342,2013-03-03 20:01:00,
2013-03-03 15:06:00,35.1,4.4,29.09,WSW,243,7.7,14.3,27,-99.99,,,-99.99,WSDL version 342,2013-03-03 20:06:00,
2013-03-03 15:11:00,35.5,4.8,29.09,WNW,293,6.5,10.3,27,-99.99,,,-99.99,WSDL version 342,2013-03-03 20:11:00,
2013-03-03 15:16:00,35.4,4.7,29.09,WNW,293,6.7,8.7,27,-99.99,,,-99.99,WSDL version 342,2013-03-03 20:16:00,
2013-03-03 15:21:00,35.0,4.4,29.09,WNW,302,6.6,8.7,27,-99.99,,,-99.99,WSDL version 342,2013-03-03 20:21:00,
2013-03-03 15:26:00,34.6,4.1,29.09,WNW,286,5.6,10.3,27,-99.99,,,-99.99,WSDL version 342,2013-03-03 20:26:00,
2013-03-03 15:31:00,35.3,4.6,29.09,West,270,8.6,13.0,27,-99.99,,,-99.99,WSDL version 342,2013-03-03 20:31:00,
2013-03-03 15:36:00,35.0,4.4,29.09,West,273,7.8,13.0,27,-99.99,,,-99.99,WSDL version 342,2013-03-03 20:36:00,
2013-03-03 15:41:00,35.1,4.5,29.09,WNW,297,7.8,11.4,27,-99.99,,,-99.99,WSDL version 342,2013-03-03 20:41:00,
2013-03-03 15:46:00,34.7,4.2,29.09,West,266,5.7,12.3,27,-99.99,,,-99.99,WSDL version 342,2013-03-03 20:46:00,
2013-03-03 15:51:00,34.9,4.3,29.09,WNW,293,6.0,12.3,27,-99.99,,,-99.99,WSDL version 342,2013-03-03 20:51:00,
2013-03-03 15:56:00,35.3,4.6,29.06,West,274,5.4,9.2,27,-99.99,,,-99.99,WSDL version 342,2013-03-03 20:56:00,
2013-03-03 16:01:00,35.2,4.6,29.06,West,281,5.9,9.4,27,-99.99,,,-99.99,WSDL version 342,2013-03-03 21:01:00,
2013-03-03 16:06:00,34.9,4.3,29.06,West,270,7.7,10.3,27,-99.99,,,-99.99,WSDL version 342,2013-03-03 21:06:00,
2013-03-03 16:11:00,35.5,4.8,29.09,WNW,287,5.3,10.3,27,-99.99,,,-99.99,WSDL version 342,2013-03-03 21:11:00,
2013-03-03 16:16:00,36.3,5.5,29.09,West,267,6.0,8.5,27,-99.99,,,-99.99,WSDL version 342,2013-03-03 21:16:00,
2013-03-03 16:21:00,36.2,5.4,29.09,WNW,289,6.3,8.5,27,-99.99,,,-99.99,WSDL version 342,2013-03-03 21:21:00,
2013-03-03 16:27:00,35.3,3.8,29.09,WNW,285,4.4,8.7,27,-99.99,,,-99.99,WSDL version 342,2013-03-03 21:27:00,
2013-03-03 16:33:00,34.9,4.3,29.09,WNW,297,3.8,7.4,27,-99.99,,,-99.99,WSDL version 342,2013-03-03 21:33:00,
2013-03-03 16:38:00,34.6,4.1,29.09,NW,309,6.5,14.3,27,-99.99,,,-99.99,WSDL version 342,2013-03-03 21:38:00,
2013-03-03 16:43:00,34.3,3.8,29.09,WNW,293,4.7,14.3,27,-99.99,,,-99.99,WSDL version 342,2013-03-03 21:43:00,
2013-03-03 16:48:00,34.1,5.1,29.09,West,264,4.3,6.5,30,-99.99,,,-99.99,WSDL version 342,2013-03-03 21:48:00,
2013-03-03 16:53:00,33.7,5.6,29.09,WNW,293,9.0,9.0,30,-99.99,,,-99.99,WSDL version 342,2013-03-03 21:53:00,
2013-03-03 16:58:00,33.4,5.3,29.09,WNW,284,6.1,10.3,30,-99.99,,,-99.99,WSDL version 342,2013-03-03 21:58:00,
2013-03-03 17:03:00,33.1,5.1,29.09,West,270,7.8,10.3,30,-99.99,,,-99.99,WSDL version 342,2013-03-03 22:03:00,
2013-03-03 17:08:00,33.0,4.9,29.09,West,281,6.2,10.3,30,-99.99,,,-99.99,WSDL version 342,2013-03-03 22:08:00,
2013-03-03 17:13:00,32.7,4.7,29.09,West,270,4.5,10.3,30,-99.99,,,-99.99,WSDL version 342,2013-03-03 22:13:00,
2013-03-03 17:18:00,32.5,4.5,29.09,WNW,293,5.9,7.4,30,-99.99,,,-99.99,WSDL version 342,2013-03-03 22:18:00,
2013-03-03 17:23:00,32.5,4.5,29.09,WSW,248,6.3,7.4,30,-99.99,,,-99.99,WSDL version 342,2013-03-03 22:23:00,
2013-03-03 17:28:00,32.2,4.8,29.09,WNW,293,6.3,6.3,31,-99.99,,,-99.99,WSDL version 342,2013-03-03 22:28:00,
2013-03-03 17:33:00,32.2,4.9,29.09,North,-999,-999.0,-999.0,31,-99.99,,,-99.99,WSDL version 342,2013-03-03 22:33:00,
2013-03-03 17:38:00,31.9,7.6,29.09,West,263,5.3,7.6,31,-99.99,,,-99.99,WSDL version 342,2013-03-03 22:38:00,
2013-03-03 17:43:00,31.7,7.4,29.09,WSW,248,4.7,7.6,31,-99.99,,,-99.99,WSDL version 342,2013-03-03 22:43:00,
2013-03-03 17:48:00,31.5,7.2,29.09,WSW,248,4.7,4.7,31,-99.99,,,-99.99,WSDL version 342,2013-03-03 22:48:00,
2013-03-03 17:53:00,31.3,7.1,29.09,West,270,4.0,6.3,31,-99.99,,,-99.99,WSDL version 342,2013-03-03 22:53:00,
2013-03-03 17:59:00,31.1,6.9,29.09,West,270,4.0,6.3,31,-99.99,,,-99.99,WSDL version 342,2013-03-03 22:59:00,
2013-03-03 18:04:00,30.9,7.3,29.09,West,270,4.0,5.8,32,-99.99,,,-99.99,WSDL version 342,2013-03-03 23:04:00,
2013-03-03 18:09:00,30.9,7.3,29.09,WNW,285,3.8,9.8,32,-99.99,,,-99.99,WSDL version 342,2013-03-03 23:09:00,
2013-03-03 18:14:00,30.7,7.2,29.09,WNW,285,5.1,9.8,32,-99.99,,,-99.99,WSDL version 342,2013-03-03 23:14:00,
2013-03-03 18:19:00,30.7,7.2,29.09,NW,315,4.7,8.7,32,-99.99,,,-99.99,WSDL version 342,2013-03-03 23:19:00,
2013-03-03 18:24:00,30.7,7.5,29.09,NW,315,6.3,8.7,33,-99.99,,,-99.99,WSDL version 342,2013-03-03 23:24:00,
2013-03-03 18:29:00,30.7,7.8,29.09,NW,315,6.3,6.3,33,-99.99,,,-99.99,WSDL version 342,2013-03-03 23:29:00,
2013-03-03 18:34:00,30.9,7.6,29.09,WNW,293,6.2,6.7,32,-99.99,,,-99.99,WSDL version 342,2013-03-03 23:34:00,
2013-03-03 18:39:00,30.9,7.4,29.09,West,281,6.2,8.1,32,-99.99,,,-99.99,WSDL version 342,2013-03-03 23:39:00,
2013-03-03 18:44:00,30.9,7.3,29.09,WNW,287,5.3,8.9,32,-99.99,,,-99.99,WSDL version 342,2013-03-03 23:44:00,
2013-03-03 18:49:00,30.9,7.5,29.09,WNW,293,4.5,8.9,32,-99.99,,,-99.99,WSDL version 342,2013-03-03 23:49:00,
2013-03-03 18:54:00,30.9,7.3,29.09,NW,304,4.5,6.9,32,-99.99,,,-99.99,WSDL version 342,2013-03-03 23:54:00,
2013-03-03 18:59:00,30.8,7.2,29.09,WNW,300,4.0,6.9,32,-99.99,,,-99.99,WSDL version 342,2013-03-03 23:59:00,
2013-03-03 19:04:00,30.7,7.2,29.09,West,270,5.8,6.5,32,-99.99,,,-99.99,WSDL version 342,2013-03-04 00:04:00,
2013-03-03 19:09:00,30.6,7.1,29.09,WNW,285,6.0,6.5,32,-99.99,,,-99.99,WSDL version 342,2013-03-04 00:09:00,
2013-03-03 19:14:00,30.6,7.0,29.09,WNW,293,6.0,6.0,32,-99.99,,,-99.99,WSDL version 342,2013-03-04 00:14:00,
2013-03-03 19:19:00,30.4,6.9,29.09,WNW,293,4.3,6.0,32,-99.99,,,-99.99,WSDL version 342,2013-03-04 00:19:00,
2013-03-03 19:24:00,30.3,7.1,29.09,WNW,300,6.3,7.6,33,-99.99,,,-99.99,WSDL version 342,2013-03-04 00:24:00,
2013-03-03 19:29:00,30.2,7.3,29.09,West,263,5.1,7.6,33,-99.99,,,-99.99,WSDL version 342,2013-03-04 00:29:00,
2013-03-03 19:34:00,30.1,7.2,29.09,WNW,289,5.4,6.5,33,-99.99,,,-99.99,WSDL version 342,2013-03-04 00:34:00,
2013-03-03 19:39:00,29.9,7.0,29.09,WNW,293,3.8,6.0,33,-99.99,,,-99.99,WSDL version 342,2013-03-04 00:39:00,
2013-03-03 19:44:00,29.8,7.1,29.09,WNW,293,3.8,5.4,33,-99.99,,,-99.99,WSDL version 342,2013-03-04 00:44:00,
2013-03-03 19:49:00,29.8,7.4,29.09,NW,315,6.3,6.3,34,-99.99,,,-99.99,WSDL version 342,2013-03-04 00:49:00,
2013-03-03 19:54:00,29.8,7.4,29.09,West,279,4.4,5.6,34,-99.99,,,-99.99,WSDL version 342,2013-03-04 00:54:00,
2013-03-03 19:59:00,29.8,7.4,29.09,WNW,293,4.9,8.5,33,-99.99,,,-99.99,WSDL version 342,2013-03-04 00:59:00,
2013-03-03 20:04:00,29.8,6.9,29.09,WNW,293,4.9,8.7,33,-99.99,,,-99.99,WSDL version 342,2013-03-04 01:04:00,
2013-03-03 20:09:00,29.8,6.9,29.09,NW,304,6.9,8.7,33,-99.99,,,-99.99,WSDL version 342,2013-03-04 01:09:00,
2013-03-03 20:14:00,29.8,6.9,29.09,WNW,284,5.8,8.7,33,-99.99,,,-99.99,WSDL version 342,2013-03-04 01:14:00,
2013-03-03 20:19:00,29.8,7.3,29.09,WNW,285,4.9,6.3,34,-99.99,,,-99.99,WSDL version 342,2013-03-04 01:19:00,
2013-03-03 20:24:00,29.8,7.2,29.09,West,270,5.6,8.1,34,-99.99,,,-99.99,WSDL version 342,2013-03-04 01:24:00,
2013-03-03 20:29:00,29.8,7.3,29.09,West,270,5.6,8.1,34,-99.99,,,-99.99,WSDL version 342,2013-03-04 01:29:00,
2013-03-03 20:34:00,29.8,7.1,29.09,West,270,5.6,5.6,33,-99.99,,,-99.99,WSDL version 342,2013-03-04 01:34:00,
2013-03-03 20:39:00,29.8,6.9,29.09,NW,315,6.7,8.7,33,-99.99,,,-99.99,WSDL version 342,2013-03-04 01:39:00,
2013-03-03 20:44:00,29.8,7.1,29.09,West,270,5.6,8.7,34,-99.99,,,-99.99,WSDL version 342,2013-03-04 01:44:00,
2013-03-03 20:49:00,29.7,7.2,29.09,WNW,293,6.3,12.1,33,-99.99,,,-99.99,WSDL version 342,2013-03-04 01:49:00,
2013-03-03 20:54:00,29.5,6.7,29.09,WNW,287,6.0,12.1,33,-99.99,,,-99.99,WSDL version 342,2013-03-04 01:54:00,
2013-03-03 20:59:00,29.3,7.1,29.09,WNW,293,6.0,12.1,34,-99.99,,,-99.99,WSDL version 342,2013-03-04 01:59:00,
2013-03-03 21:04:00,29.1,7.0,29.09,WNW,293,5.4,5.8,34,-99.99,,,-99.99,WSDL version 342,2013-03-04 02:04:00,
2013-03-03 21:09:00,29.1,6.9,29.09,WNW,293,7.8,13.0,34,-99.99,,,-99.99,WSDL version 342,2013-03-04 02:09:00,
2013-03-03 21:14:00,29.0,6.8,29.09,WNW,285,5.9,13.0,35,-99.99,,,-99.99,WSDL version 342,2013-03-04 02:14:00,
2013-03-03 21:19:00,28.9,6.6,29.09,West,278,6.5,8.1,34,-99.99,,,-99.99,WSDL version 342,2013-03-04 02:19:00,
2013-03-03 21:24:00,28.8,6.5,29.12,WSW,248,4.9,8.1,34,-99.99,,,-99.99,WSDL version 342,2013-03-04 02:24:00,
2013-03-03 21:29:00,28.7,6.5,29.12,NW,321,4.9,8.5,34,-99.99,,,-99.99,WSDL version 342,2013-03-04 02:29:00,
2013-03-03 21:34:00,28.6,7.0,29.12,West,278,3.9,8.5,35,-99.99,,,-99.99,WSDL version 342,2013-03-04 02:34:00,
2013-03-03 21:39:00,28.4,6.8,29.12,West,270,3.8,5.6,35,-99.99,,,-99.99,WSDL version 342,2013-03-04 02:39:00,
2013-03-03 21:44:00,28.2,6.6,29.12,NW,315,4.3,5.6,35,-99.99,,,-99.99,WSDL version 342,2013-03-04 02:44:00,
2013-03-03 21:50:00,28.2,6.6,29.12,NNW,332,6.8,11.0,35,-99.99,,,-99.99,WSDL version 342,2013-03-04 02:50:00,
2013-03-03 21:56:00,28.2,6.6,29.12,NW,308,6.0,11.0,35,-99.99,,,-99.99,WSDL version 342,2013-03-04 02:56:00,
2013-03-03 22:01:00,28.2,6.1,29.12,WNW,285,7.2,11.0,34,-99.99,,,-99.99,WSDL version 342,2013-03-04 03:01:00,
2013-03-03 22:06:00,28.2,6.1,29.12,NNW,338,8.7,11.0,34,-99.99,,,-99.99,WSDL version 342,2013-03-04 03:06:00,
2013-03-03 22:11:00,28.0,6.5,29.09,WNW,293,5.4,11.0,35,-99.99,,,-99.99,WSDL version 342,2013-03-04 03:11:00,
2013-03-03 22:16:00,28.0,6.5,29.09,NW,315,5.4,10.7,35,-99.99,,,-99.99,WSDL version 342,2013-03-04 03:16:00,
2013-03-03 22:22:00,28.0,6.4,29.09,West,270,7.6,8.5,35,-99.99,,,-99.99,WSDL version 342,2013-03-04 03:22:00,
2013-03-03 22:28:00,27.9,6.3,29.12,WNW,287,6.7,8.5,35,-99.99,,,-99.99,WSDL version 342,2013-03-04 03:28:00,
2013-03-03 22:33:00,27.9,6.2,29.12,WNW,293,9.6,11.2,35,-99.99,,,-99.99,WSDL version 342,2013-03-04 03:33:00,
2013-03-03 22:38:00,28.0,6.0,29.12,NNW,338,6.9,13.0,34,-99.99,,,-99.99,WSDL version 342,2013-03-04 03:38:00,
2013-03-03 22:43:00,27.9,5.8,29.12,WNW,287,8.9,13.0,34,-99.99,,,-99.99,WSDL version 342,2013-03-04 03:43:00,
2013-03-03 22:49:00,27.9,5.4,29.12,WNW,288,7.8,13.0,34,-99.99,,,-99.99,WSDL version 342,2013-03-04 03:49:00,
2013-03-03 22:54:00,27.8,5.7,29.09,West,270,5.6,13.0,34,-99.99,,,-99.99,WSDL version 342,2013-03-04 03:54:00,
2013-03-03 22:59:00,27.7,5.3,29.09,WNW,293,7.4,8.5,33,-99.99,,,-99.99,WSDL version 342,2013-03-04 03:59:00,
2013-03-03 23:05:00,27.7,5.0,29.09,West,270,7.6,10.1,33,-99.99,,,-99.99,WSDL version 342,2013-03-04 04:05:00,
2013-03-03 23:10:00,27.7,5.0,29.12,WNW,289,8.4,11.0,33,-99.99,,,-99.99,WSDL version 342,2013-03-04 04:10:00,
2013-03-03 23:15:00,27.6,4.9,29.12,WNW,284,8.7,11.0,33,-99.99,,,-99.99,WSDL version 342,2013-03-04 04:15:00,
2013-03-03 23:20:00,27.5,4.8,29.12,West,279,6.3,16.3,33,-99.99,,,-99.99,WSDL version 342,2013-03-04 04:20:00,
2013-03-03 23:25:00,27.3,4.6,29.12,West,270,6.2,16.3,33,-99.99,,,-99.99,WSDL version 342,2013-03-04 04:25:00,
2013-03-03 23:30:00,27.2,4.6,29.12,WNW,293,6.1,10.5,33,-99.99,,,-99.99,WSDL version 342,2013-03-04 04:30:00,
2013-03-03 23:35:00,27.1,4.5,29.12,West,263,6.7,11.0,33,-99.99,,,-99.99,WSDL version 342,2013-03-04 04:35:00,
2013-03-03 23:40:00,27.0,4.4,29.09,West,275,6.9,11.0,33,-99.99,,,-99.99,WSDL version 342,2013-03-04 04:40:00,
2013-03-03 23:45:00,27.0,4.3,29.09,WNW,287,5.0,9.6,33,-99.99,,,-99.99,WSDL version 342,2013-03-04 04:45:00,
2013-03-03 23:50:00,26.9,4.8,29.09,West,270,4.0,11.2,34,-99.99,,,-99.99,WSDL version 342,2013-03-04 04:50:00,
2013-03-03 23:55:00,26.6,4.6,29.09,West,266,6.1,11.2,34,-99.99,,,-99.99,WSDL version 342,2013-03-04 04:55:00,